OAL063 LGAV-LICR

Flight info

Callsign OAL063
Flight time 1h 5m
Altitude 45000
Route KOR UN604 RUTOM DCT EKPAR DCT GIMEL
Aircraft C750/M-SBDE3FGHRWXY/S

Departure

Time 2026-05-06 11:59
Airport Athens Eleftherios Venizelos International Airport (LGAV)

Arrival

Time 2026-05-06 13:05
Airport Reggio Calabria Airport (LICR)
Time Latitude Longitude Altitude Speed Heading
2026-05-06 11:17 37.95043 23.96198 297 ft 0 kts 39°
2026-05-06 11:55 37.95044 23.96204 297 ft 3 kts 79°
2026-05-06 11:55 37.95015 23.96256 297 ft 12 kts 146°
2026-05-06 11:55 37.94969 23.96343 297 ft 9 kts 79°
2026-05-06 11:56 37.95023 23.96443 299 ft 17 kts 34°
2026-05-06 11:56 37.95109 23.96525 298 ft 16 kts 37°
2026-05-06 11:56 37.95200 23.96611 298 ft 17 kts 37°
2026-05-06 11:56 37.95219 23.96721 300 ft 13 kts 107°
2026-05-06 11:57 37.95250 23.96798 299 ft 7 kts 38°
2026-05-06 11:57 37.95294 23.96845 300 ft 9 kts 51°
2026-05-06 11:57 37.95285 23.96919 302 ft 9 kts 126°
2026-05-06 11:57 37.95250 23.96979 304 ft 9 kts 126°
2026-05-06 11:58 37.95194 23.97024 306 ft 11 kts 201°
2026-05-06 11:58 37.95131 23.96967 306 ft 15 kts 216°
2026-05-06 11:58 37.94821 23.96671 299 ft 115 kts 217°
2026-05-06 11:58 37.93981 23.95871 410 ft 169 kts 214°
2026-05-06 11:59 37.92993 23.94920 786 ft 194 kts 213°
2026-05-06 11:59 37.91809 23.94301 1405 ft 199 kts 195°
2026-05-06 11:59 37.90527 23.93713 2469 ft 194 kts 205°
2026-05-06 11:59 37.89362 23.92892 3481 ft 190 kts 212°
2026-05-06 12:00 37.88213 23.92039 4425 ft 193 kts 211°
2026-05-06 12:00 37.87003 23.91181 5266 ft 209 kts 211°
2026-05-06 12:00 37.85652 23.90231 5827 ft 235 kts 211°
2026-05-06 12:00 37.84148 23.89166 6454 ft 256 kts 211°
2026-05-06 12:01 37.82752 23.87678 7005 ft 275 kts 237°
2026-05-06 12:01 37.82296 23.85385 8065 ft 272 kts 272°
2026-05-06 12:01 37.82603 23.83030 9275 ft 273 kts 283°
2026-05-06 12:01 37.83031 23.80663 10249 ft 280 kts 283°
2026-05-06 12:02 37.83394 23.78145 10681 ft 304 kts 279°
2026-05-06 12:02 37.83672 23.75415 10919 ft 330 kts 278°
2026-05-06 12:02 37.83990 23.72438 11288 ft 347 kts 279°
2026-05-06 12:02 37.84368 23.69418 12209 ft 347 kts 280°
2026-05-06 12:03 37.84740 23.66383 12981 ft 352 kts 280°
2026-05-06 12:03 37.85091 23.63306 13793 ft 355 kts 280°
2026-05-06 12:03 37.85447 23.60201 14518 ft 357 kts 280°
2026-05-06 12:03 37.85815 23.57081 15246 ft 359 kts 280°
2026-05-06 12:04 37.86185 23.53937 15996 ft 362 kts 280°
2026-05-06 12:04 37.86550 23.50777 16755 ft 364 kts 280°
2026-05-06 12:04 37.86918 23.47597 17542 ft 367 kts 280°
2026-05-06 12:04 37.87285 23.44430 18312 ft 370 kts 280°
2026-05-06 12:05 37.87659 23.41194 19016 ft 373 kts 280°
2026-05-06 12:05 37.88034 23.37927 19710 ft 377 kts 281°
2026-05-06 12:05 37.88413 23.34630 20415 ft 381 kts 281°
2026-05-06 12:05 37.88795 23.31291 21128 ft 385 kts 281°
2026-05-06 12:06 37.89181 23.27910 21837 ft 389 kts 281°
2026-05-06 12:06 37.89569 23.24509 22548 ft 393 kts 281°
2026-05-06 12:06 37.89960 23.21063 23228 ft 398 kts 281°
2026-05-06 12:06 37.90357 23.17565 23858 ft 402 kts 281°
2026-05-06 12:07 37.90749 23.14091 24446 ft 405 kts 281°
2026-05-06 12:07 37.91149 23.10536 25048 ft 408 kts 281°
2026-05-06 12:07 37.91551 23.06958 25625 ft 412 kts 281°
2026-05-06 12:07 37.91955 23.03354 26219 ft 415 kts 281°
2026-05-06 12:08 37.92361 22.99719 26799 ft 419 kts 280°
2026-05-06 12:08 37.92769 22.96056 27372 ft 422 kts 280°
2026-05-06 12:08 37.93199 22.92359 27937 ft 425 kts 281°
2026-05-06 12:08 37.93690 22.88645 28521 ft 429 kts 281°
2026-05-06 12:09 37.94170 22.84902 29092 ft 432 kts 281°
2026-05-06 12:09 37.94649 22.81134 29649 ft 436 kts 281°
2026-05-06 12:09 37.94971 22.78615 30012 ft 438 kts 281°
2026-05-06 12:09 37.95628 22.73528 30654 ft 443 kts 281°
2026-05-06 12:10 37.96121 22.69668 31175 ft 444 kts 280°
2026-05-06 12:10 37.96630 22.65825 31896 ft 440 kts 282°
2026-05-06 12:10 37.97244 22.62044 32604 ft 437 kts 282°
2026-05-06 12:10 37.97666 22.59500 33095 ft 435 kts 282°
2026-05-06 12:11 37.98269 22.55795 33830 ft 433 kts 282°
2026-05-06 12:11 37.98862 22.52073 34520 ft 430 kts 282°
2026-05-06 12:11 37.99456 22.48357 35135 ft 429 kts 282°
2026-05-06 12:11 38.00054 22.44654 35731 ft 428 kts 282°
2026-05-06 12:12 38.00649 22.40962 36361 ft 426 kts 282°
2026-05-06 12:12 38.01236 22.37279 36908 ft 426 kts 282°
2026-05-06 12:12 38.01820 22.33607 37536 ft 424 kts 282°
2026-05-06 12:12 38.02401 22.29952 38147 ft 422 kts 282°
2026-05-06 12:13 38.02982 22.26303 38732 ft 422 kts 282°
2026-05-06 12:13 38.03562 22.22661 39179 ft 421 kts 282°
2026-05-06 12:13 38.04138 22.19021 39629 ft 421 kts 282°
2026-05-06 12:13 38.04712 22.15375 40074 ft 422 kts 282°
2026-05-06 12:14 38.05288 22.11721 40492 ft 423 kts 282°
2026-05-06 12:14 38.05863 22.08071 40944 ft 422 kts 282°
2026-05-06 12:14 38.06438 22.04409 41424 ft 422 kts 281°
2026-05-06 12:14 38.07002 22.00803 41879 ft 422 kts 281°
2026-05-06 12:15 38.07574 21.97142 42327 ft 423 kts 281°
2026-05-06 12:15 38.08145 21.93479 42800 ft 423 kts 281°
2026-05-06 12:15 38.08715 21.89814 43252 ft 423 kts 281°
2026-05-06 12:15 38.09284 21.86150 43700 ft 423 kts 281°
2026-05-06 12:16 38.09852 21.82483 44152 ft 423 kts 281°
2026-05-06 12:16 38.10418 21.78820 44607 ft 423 kts 281°
2026-05-06 12:16 38.10982 21.75166 45001 ft 419 kts 281°
2026-05-06 12:16 38.11542 21.71523 45105 ft 425 kts 281°
2026-05-06 12:17 38.12697 21.63998 45127 ft 442 kts 281°
2026-05-06 12:17 38.13889 21.56193 45142 ft 457 kts 281°
2026-05-06 12:18 38.15106 21.48173 45142 ft 466 kts 281°
2026-05-06 12:18 38.16314 21.40134 45138 ft 465 kts 280°
2026-05-06 12:19 38.17370 21.32056 45134 ft 463 kts 279°
2026-05-06 12:19 38.18489 21.23979 45135 ft 464 kts 280°
2026-05-06 12:20 38.19573 21.15874 45133 ft 464 kts 279°
2026-05-06 12:20 38.20664 21.07768 45120 ft 464 kts 279°
2026-05-06 12:21 38.21740 20.99698 45109 ft 463 kts 279°
2026-05-06 12:21 38.22814 20.91617 45117 ft 464 kts 279°
2026-05-06 12:22 38.23883 20.83527 45118 ft 464 kts 279°
2026-05-06 12:22 38.24942 20.75442 45125 ft 463 kts 279°
2026-05-06 12:23 38.25999 20.67367 45124 ft 463 kts 279°
2026-05-06 12:23 38.27049 20.59274 45127 ft 463 kts 279°
2026-05-06 12:24 38.28095 20.51177 45125 ft 463 kts 279°
2026-05-06 12:24 38.29127 20.43143 45128 ft 463 kts 279°
2026-05-06 12:25 38.30160 20.35051 45127 ft 463 kts 279°
2026-05-06 12:25 38.31187 20.26963 45126 ft 463 kts 279°
2026-05-06 12:26 38.32470 20.18933 45121 ft 463 kts 282°
2026-05-06 12:26 38.33825 20.10905 45124 ft 463 kts 281°
2026-05-06 12:27 38.35161 20.02880 45125 ft 463 kts 282°
2026-05-06 12:27 38.36492 19.94905 45126 ft 463 kts 281°
2026-05-06 12:28 38.37821 19.86870 45124 ft 463 kts 281°
2026-05-06 12:28 38.39148 19.78837 45126 ft 463 kts 281°
2026-05-06 12:29 38.40465 19.70806 45127 ft 463 kts 281°
2026-05-06 12:29 38.41782 19.62756 45126 ft 463 kts 281°
2026-05-06 12:30 38.43089 19.54720 45125 ft 463 kts 281°
2026-05-06 12:30 38.44392 19.46673 45121 ft 463 kts 281°
2026-05-06 12:31 38.45682 19.38676 45122 ft 463 kts 281°
2026-05-06 12:31 38.46972 19.30636 45120 ft 462 kts 281°
2026-05-06 12:32 38.48255 19.22603 45124 ft 462 kts 281°
2026-05-06 12:32 38.49533 19.14568 45120 ft 462 kts 281°
2026-05-06 12:33 38.50807 19.06521 45121 ft 462 kts 281°
2026-05-06 12:33 38.51790 18.98435 45096 ft 461 kts 272°
2026-05-06 12:34 38.51702 18.90263 45122 ft 460 kts 269°
2026-05-06 12:34 38.51606 18.82136 45119 ft 461 kts 269°
2026-05-06 12:35 38.51482 18.73961 45111 ft 460 kts 269°
2026-05-06 12:35 38.51365 18.65783 45111 ft 460 kts 269°
2026-05-06 12:36 38.51235 18.57602 45106 ft 461 kts 269°
2026-05-06 12:36 38.51104 18.49418 45106 ft 461 kts 269°
2026-05-06 12:37 38.50965 18.41276 45104 ft 461 kts 269°
2026-05-06 12:37 38.50822 18.33104 45101 ft 460 kts 269°
2026-05-06 12:38 38.50672 18.24934 45098 ft 460 kts 269°
2026-05-06 12:38 38.50516 18.16773 45096 ft 460 kts 269°
2026-05-06 12:39 38.50355 18.08612 45098 ft 459 kts 269°
2026-05-06 12:39 38.50189 18.00465 45095 ft 459 kts 269°
2026-05-06 12:40 38.50017 17.92306 45094 ft 459 kts 268°
2026-05-06 12:40 38.49839 17.84167 45088 ft 458 kts 268°
2026-05-06 12:41 38.49657 17.76088 45089 ft 458 kts 268°
2026-05-06 12:41 38.49469 17.67947 45087 ft 457 kts 268°
2026-05-06 12:42 38.49275 17.59824 45083 ft 457 kts 268°
2026-05-06 12:42 38.49075 17.51700 45082 ft 458 kts 268°
2026-05-06 12:43 38.48870 17.43573 45078 ft 458 kts 268°
2026-05-06 12:43 38.48661 17.35563 44288 ft 453 kts 268°
2026-05-06 12:44 38.48554 17.31530 43189 ft 453 kts 268°
2026-05-06 12:44 38.48447 17.27531 42152 ft 449 kts 268°
2026-05-06 12:44 38.48340 17.23565 41173 ft 446 kts 268°
2026-05-06 12:44 38.48231 17.19617 40246 ft 441 kts 268°
2026-05-06 12:45 38.48123 17.15720 39357 ft 437 kts 268°
2026-05-06 12:45 38.48014 17.11866 38445 ft 432 kts 267°
2026-05-06 12:45 38.47798 17.04313 36402 ft 420 kts 267°
2026-05-06 12:46 38.47690 17.00607 35445 ft 415 kts 267°
2026-05-06 12:46 38.47583 16.96958 34525 ft 410 kts 267°
2026-05-06 12:46 38.47478 16.93383 33575 ft 406 kts 268°
2026-05-06 12:46 38.47466 16.89797 32564 ft 402 kts 269°
2026-05-06 12:47 38.47409 16.86249 31596 ft 398 kts 268°
2026-05-06 12:47 38.47336 16.82735 30664 ft 393 kts 268°
2026-05-06 12:47 38.47298 16.79257 29702 ft 389 kts 269°
2026-05-06 12:47 38.47271 16.75818 28665 ft 385 kts 269°
2026-05-06 12:48 38.47228 16.72407 27675 ft 382 kts 269°
2026-05-06 12:48 38.47176 16.69033 26709 ft 378 kts 269°
2026-05-06 12:48 38.47130 16.65704 25777 ft 373 kts 269°
2026-05-06 12:48 38.47089 16.62413 24879 ft 369 kts 269°
2026-05-06 12:49 38.47045 16.59155 24005 ft 365 kts 268°
2026-05-06 12:49 38.46998 16.55941 23060 ft 360 kts 268°
2026-05-06 12:49 38.46952 16.52798 22076 ft 357 kts 268°
2026-05-06 12:49 38.46906 16.49639 21121 ft 354 kts 268°
2026-05-06 12:50 38.46860 16.46523 20461 ft 344 kts 268°
2026-05-06 12:50 38.46815 16.43558 20111 ft 327 kts 268°
2026-05-06 12:50 38.46771 16.40720 19689 ft 314 kts 268°
2026-05-06 12:50 38.46727 16.37962 19272 ft 308 kts 268°
2026-05-06 12:51 38.46684 16.35250 18877 ft 305 kts 268°
2026-05-06 12:51 38.46640 16.32541 18478 ft 306 kts 268°
2026-05-06 12:51 38.46595 16.29827 18038 ft 305 kts 268°
2026-05-06 12:51 38.46550 16.27138 17643 ft 302 kts 268°
2026-05-06 12:52 38.46506 16.24455 17242 ft 302 kts 268°
2026-05-06 12:52 38.46459 16.21765 16840 ft 304 kts 268°
2026-05-06 12:52 38.46412 16.19063 16438 ft 304 kts 268°
2026-05-06 12:52 38.46365 16.16376 16033 ft 302 kts 268°
2026-05-06 12:53 38.46319 16.13751 15643 ft 299 kts 268°
2026-05-06 12:53 38.46271 16.11105 15246 ft 296 kts 268°
2026-05-06 12:53 38.46216 16.08495 14854 ft 294 kts 267°
2026-05-06 12:53 38.45733 16.05973 14425 ft 295 kts 248°
2026-05-06 12:54 38.44617 16.03800 14059 ft 295 kts 230°
2026-05-06 12:54 38.43077 16.02071 13688 ft 295 kts 223°
2026-05-06 12:54 38.41508 16.00426 13298 ft 289 kts 223°
2026-05-06 12:54 38.39973 15.98787 12905 ft 286 kts 223°
2026-05-06 12:55 38.38449 15.97150 12534 ft 287 kts 223°
2026-05-06 12:55 38.36921 15.95520 12148 ft 286 kts 222°
2026-05-06 12:55 38.35390 15.93895 11773 ft 286 kts 222°
2026-05-06 12:55 38.33852 15.92258 11391 ft 289 kts 222°
2026-05-06 12:56 38.32570 15.90896 11066 ft 287 kts 222°
2026-05-06 12:56 38.31041 15.89272 10698 ft 286 kts 222°
2026-05-06 12:56 38.29513 15.87645 10322 ft 286 kts 222°
2026-05-06 12:56 38.28017 15.85986 9914 ft 283 kts 227°
2026-05-06 12:57 38.27167 15.83913 9445 ft 283 kts 257°
2026-05-06 12:57 38.27145 15.81434 9218 ft 281 kts 276°
2026-05-06 12:57 38.27843 15.79086 8862 ft 287 kts 300°
2026-05-06 12:57 38.29179 15.77206 8515 ft 285 kts 311°
2026-05-06 12:58 38.29981 15.75901 8260 ft 281 kts 301°
2026-05-06 12:58 38.30926 15.73748 7900 ft 279 kts 293°
2026-05-06 12:58 38.31630 15.71454 7524 ft 280 kts 285°
2026-05-06 12:58 38.32121 15.69045 7142 ft 281 kts 279°
2026-05-06 12:59 38.32465 15.65762 6640 ft 284 kts 272°
2026-05-06 12:59 38.32517 15.64062 6379 ft 284 kts 269°
2026-05-06 12:59 38.32444 15.61535 5985 ft 288 kts 263°
2026-05-06 12:59 38.32151 15.59031 5567 ft 284 kts 252°
2026-05-06 13:00 38.31201 15.56967 5181 ft 269 kts 227°
2026-05-06 13:00 38.29693 15.55564 4846 ft 272 kts 206°
2026-05-06 13:00 38.27952 15.54639 4487 ft 273 kts 195°
2026-05-06 13:00 38.26141 15.54564 4197 ft 262 kts 175°
2026-05-06 13:01 38.24286 15.54800 3889 ft 268 kts 175°
2026-05-06 13:01 38.22507 15.55161 3536 ft 265 kts 163°
2026-05-06 13:01 38.20980 15.56104 3201 ft 226 kts 153°
2026-05-06 13:01 38.19638 15.57024 2845 ft 226 kts 154°
2026-05-06 13:02 38.18205 15.57950 2495 ft 234 kts 155°
2026-05-06 13:02 38.16772 15.58866 2176 ft 228 kts 155°
2026-05-06 13:02 38.15428 15.59745 1857 ft 201 kts 155°
2026-05-06 13:02 38.14298 15.60492 1575 ft 169 kts 156°
2026-05-06 13:03 38.13293 15.61144 1329 ft 154 kts 157°
2026-05-06 13:03 38.12391 15.61729 1116 ft 139 kts 156°
2026-05-06 13:03 38.11557 15.62273 924 ft 132 kts 156°
2026-05-06 13:03 38.10758 15.62805 755 ft 127 kts 156°
2026-05-06 13:04 38.09975 15.63311 664 ft 126 kts 155°
2026-05-06 13:04 38.09180 15.63832 516 ft 132 kts 156°
2026-05-06 13:04 38.08363 15.64360 209 ft 129 kts 156°
2026-05-06 13:04 38.07618 15.64836 60 ft 109 kts 159°
2026-05-06 13:05 38.07082 15.65182 37 ft 48 kts 151°
2026-05-06 13:05 38.06881 15.65312 32 ft 22 kts 155°
2026-05-06 13:05 38.06762 15.65408 30 ft 16 kts 130°
2026-05-06 13:05 38.06747 15.65397 30 ft 7 kts 323°
2026-05-06 13:06 38.06792 15.65368 31 ft 7 kts 332°
2026-05-06 13:06 38.06839 15.65337 31 ft 9 kts 333°
2026-05-06 13:06 38.06898 15.65300 32 ft 10 kts 333°
2026-05-06 13:06 38.06967 15.65256 34 ft 12 kts 334°
2026-05-06 13:07 38.07044 15.65208 36 ft 13 kts 334°
2026-05-06 13:07 38.07125 15.65156 39 ft 13 kts 333°
2026-05-06 13:07 38.07209 15.65101 42 ft 14 kts 332°
2026-05-06 13:07 38.07287 15.65102 44 ft 12 kts 52°
2026-05-06 13:08 38.07323 15.65183 46 ft 10 kts 62°
2026-05-06 13:08 38.07355 15.65260 46 ft 10 kts 64°
2026-05-06 13:08 38.07366 15.65290 46 ft 0 kts 63°